EW7670 Weather Reports


time (UTC)temp
F
wind
direction
speed
knots
gust
knots
rain 1hr
in
rain 24hr
in
rain mn
in
humidity
%
barometer
mb
20260506190031 74 206 13.9 25.2 0.00 0.00 0.00 83 1012.6
20260506183105 74 194 15.6 23.5 0.00 0.00 0.00 82 1013.2
20260506164652 74 193 12.2 20.0 0.00 0.00 0.00 83 1014.6
20260506163023 73 194 12.2 19.1 0.00 0.00 0.00 82 1014.7
20260506161619 74 216 10.4 17.4 0.00 0.00 0.00 80 1014.8
20260506160032 74 208 9.6 16.5 0.00 0.00 0.00 80 1014.9
20260506154531 73 224 9.6 18.2 0.00 0.00 0.00 81 1014.7
20260506151655 73 211 12.2 19.1 0.00 0.00 0.00 82 1015.1
20260506143027 72 206 8.7 13.9 0.00 0.00 0.00 83 1015.1
20260506134544 72 203 9.6 13.9 0.00 0.00 0.00 81 1014.9
20260506133059 73 186 9.6 17.4 0.00 0.00 0.00 78 1014.8
20260506121637 70 183 10.4 17.4 0.00 0.00 0.00 78 1015.0
20260506104617 67 190 7.0 13.0 0.00 0.00 0.00 78 1015.0
20260506100045 66 206 7.8 13.9 0.00 0.00 0.00 82 1015.0
20260506093148 66 210 5.2 11.3 0.00 0.00 0.00 83 1015.2
20260506081638 67 190 7.8 13.9 0.00 0.00 0.00 81 1015.0
20260506070141 68 207 7.8 12.2 0.00 0.00 0.00 82 1015.2
20260506044530 68 171 7.8 18.2 0.00 0.00 0.00 77 1016.2
20260506043102 68 179 9.6 20.0 0.00 0.00 0.00 77 1016.4
20260506041555 68 161 9.6 19.1 0.00 0.00 0.00 77 1016.4
20260506040129 68 186 9.6 18.2 0.00 0.00 0.00 76 1016.4
20260506033135 68 200 10.4 20.9 0.00 0.00 0.00 77 1016.4
20260506021700 68 197 10.4 20.0 0.00 0.00 0.00 76 1016.8
20260506020021 68 183 9.6 20.0 0.00 0.00 0.00 77 1016.8
20260506013152 68 175 11.3 19.1 0.00 0.00 0.00 75 1016.7
20260506010118 69 194 13.0 26.1 0.00 0.00 0.00 77 1016.5
20260505234513 69 195 14.8 24.3 0.00 0.00 0.00 78 1015.7